| time (UTC) | temp F | wind direction | speed knots | gust knots | rain 1hr in | rain 24hr in | rain mn in | humidity % | barometer mb |
| 20260509153039 | 67 | 249 | 3.5 | 12.2 | 0.00 | 0.00 | 0.00 | 18 | 1006.5 |
| 20260509151540 | 66 | 360 | 5.2 | 11.3 | 0.00 | 0.00 | 0.00 | 1 | 1006.5 |
| 20260509150032 | 64 | 360 | 5.2 | 10.4 | 0.00 | 0.00 | 0.00 | 100 | 1006.5 |
| 20260509144525 | 64 | 360 | 6.1 | 10.4 | 0.00 | 0.00 | 0.00 | 100 | 1006.6 |
| 20260509143021 | 63 | 360 | 2.6 | 10.4 | 0.00 | 0.00 | 0.00 | 100 | 1006.6 |
| 20260509141517 | 62 | 360 | 4.3 | 13.0 | 0.00 | 0.00 | 0.00 | 100 | 1006.3 |
| 20260509140014 | 61 | 360 | 3.5 | 11.3 | 0.00 | 0.00 | 0.00 | 100 | 1006.4 |
| 20260509134508 | 60 | 261 | 6.1 | 13.9 | 0.00 | 0.00 | 0.00 | 100 | 1006.3 |
| 20260509133004 | 59 | 360 | 3.5 | 11.3 | 0.00 | 0.00 | 0.00 | 100 | 1006.1 |
| 20260509131605 | 58 | 254 | 5.2 | 13.0 | 0.00 | 0.00 | 0.00 | 100 | 1006.1 |
| 20260509130126 | 57 | 360 | 4.3 | 11.3 | 0.00 | 0.00 | 0.00 | 100 | 1006.3 |
| 20260509124551 | 55 | 360 | 3.5 | 10.4 | 0.00 | 0.00 | 0.00 | 100 | 1006.1 |
| 20260509123116 | 54 | 360 | 0.9 | 9.6 | 0.00 | 0.00 | 0.00 | 100 | 1006.1 |
| 20260509121543 | 54 | 240 | 3.5 | 10.4 | 0.00 | 0.00 | 0.00 | 100 | 1006.1 |
| 20260509120047 | 53 | 246 | 1.7 | 9.6 | 0.00 | 0.00 | 0.00 | 100 | 1005.9 |
| 20260509114537 | 53 | 248 | 0.9 | 7.0 | 0.00 | 0.00 | 0.00 | 100 | 1005.9 |
| 20260509113029 | 53 | 229 | 0.0 | 7.0 | 0.00 | 0.00 | 0.00 | 100 | 1005.6 |
| 20260509111524 | 53 | 240 | 0.0 | 3.5 | 0.00 | 0.00 | 0.00 | 100 | 1005.6 |
| 20260509110026 | 53 | 248 | 0.0 | 6.1 | 0.00 | 0.00 | 0.00 | 100 | 1005.5 |
| 20260509104516 | 53 | 360 | 1.7 | 7.0 | 0.00 | 0.00 | 0.00 | 100 | 1005.7 |
| 20260509103011 | 53 | 256 | 0.9 | 7.0 | 0.00 | 0.00 | 0.00 | 100 | 1005.3 |
| 20260509101511 | 53 | 209 | 0.9 | 6.1 | 0.00 | 0.00 | 0.00 | 100 | 1005.2 |
| 20260509100006 | 53 | 219 | 0.9 | 5.2 | 0.00 | 0.00 | 0.00 | 100 | 1005.2 |
| 20260509094603 | 53 | 233 | 0.0 | 6.1 | 0.00 | 0.00 | 0.00 | 100 | 1005.5 |
| 20260509093054 | 53 | 220 | 0.0 | 5.2 | 0.00 | 0.00 | 0.00 | 100 | 1005.6 |
| 20260509091553 | 53 | 231 | 0.0 | 5.2 | 0.00 | 0.00 | 0.00 | 100 | 1005.8 |
| 20260509090046 | 53 | 245 | 0.9 | 4.3 | 0.00 | 0.00 | 0.00 | 100 | 1005.9 |
| 20260509084541 | 53 | 221 | 0.0 | 5.2 | 0.00 | 0.00 | 0.00 | 100 | 1005.9 |
| 20260509083036 | 53 | 225 | 0.0 | 7.0 | 0.00 | 0.00 | 0.00 | 100 | 1006.0 |
| 20260509081532 | 54 | 234 | 0.0 | 5.2 | 0.00 | 0.00 | 0.00 | 100 | 1006.0 |
| 20260509080028 | 54 | 236 | 0.0 | 5.2 | 0.00 | 0.00 | 0.00 | 100 | 1006.1 |
| 20260509074523 | 54 | 232 | 0.0 | 3.5 | 0.00 | 0.00 | 0.00 | 100 | 1006.0 |
| 20260509073020 | 54 | 244 | 0.0 | 3.5 | 0.00 | 0.00 | 0.00 | 100 | 1006.2 |
| 20260509071514 | 54 | 232 | 0.0 | 4.3 | 0.00 | 0.00 | 0.00 | 100 | 1006.3 |
| 20260509070011 | 55 | 234 | 0.0 | 5.2 | 0.00 | 0.00 | 0.00 | 100 | 1006.6 |
| 20260509064505 | 55 | 246 | 0.9 | 5.2 | 0.00 | 0.00 | 0.00 | 100 | 1006.9 |
| 20260509063001 | 55 | 238 | 0.0 | 7.0 | 0.00 | 0.00 | 0.00 | 100 | 1006.9 |
| 20260509061607 | 55 | 250 | 0.9 | 7.0 | 0.00 | 0.00 | 0.00 | 100 | 1007.1 |
| 20260509060053 | 56 | 244 | 0.9 | 7.0 | 0.00 | 0.00 | 0.00 | 100 | 1007.2 |
| 20260509054608 | 56 | 360 | 0.0 | 5.2 | 0.00 | 0.00 | 0.00 | 100 | 1007.2 |
| 20260509053051 | 56 | 219 | 0.0 | 5.2 | 0.00 | 0.00 | 0.00 | 100 | 1007.4 |
| 20260509051539 | 56 | 360 | 0.0 | 5.2 | 0.00 | 0.00 | 0.00 | 100 | 1007.5 |
| 20260509050036 | 57 | 223 | 0.0 | 7.0 | 0.00 | 0.00 | 0.00 | 100 | 1007.3 |
| 20260509044531 | 57 | 236 | 0.0 | 6.1 | 0.00 | 0.00 | 0.00 | 100 | 1007.3 |
| 20260509043026 | 58 | 223 | 0.0 | 6.1 | 0.00 | 0.00 | 0.00 | 100 | 1007.3 |
| 20260509041523 | 58 | 228 | 0.0 | 4.3 | 0.00 | 0.00 | 0.00 | 100 | 1007.5 |
| 20260509040033 | 59 | 230 | 0.0 | 5.2 | 0.00 | 0.00 | 0.00 | 100 | 1007.5 |
| 20260509034515 | 59 | 239 | 0.9 | 5.2 | 0.00 | 0.00 | 0.00 | 100 | 1007.5 |
| 20260509033009 | 60 | 246 | 1.7 | 6.1 | 0.00 | 0.00 | 0.00 | 100 | 1007.6 |
| 20260509031519 | 60 | 217 | 0.9 | 7.8 | 0.00 | 0.00 | 0.00 | 100 | 1007.6 |
| 20260509030110 | 61 | 184 | 1.7 | 7.0 | 0.00 | 0.00 | 0.00 | 100 | 1007.6 |
| 20260509024557 | 61 | 360 | 0.9 | 7.8 | 0.00 | 0.00 | 0.00 | 100 | 1007.6 |
| 20260509023102 | 62 | 213 | 1.7 | 7.8 | 0.00 | 0.00 | 0.00 | 18 | 1007.5 |
| 20260509021548 | 62 | 224 | 0.9 | 7.0 | 0.00 | 0.00 | 0.00 | 42 | 1007.5 |
| 20260509020045 | 62 | 232 | 0.0 | 0.0 | 0.00 | 0.00 | 0.00 | 45 | 1007.3 |
| 20260509014542 | 63 | 232 | 0.0 | 0.0 | 0.00 | 0.00 | 0.00 | 46 | 1007.4 |
| 20260509013036 | 64 | 230 | 0.0 | 0.0 | 0.00 | 0.00 | 0.00 | 47 | 1007.4 |
| 20260509011530 | 64 | 230 | 0.0 | 3.5 | 0.00 | 0.00 | 0.00 | 47 | 1007.4 |
| 20260509010030 | 65 | 238 | 0.0 | 3.5 | 0.00 | 0.00 | 0.00 | 47 | 1007.3 |
| 20260509004521 | 66 | 244 | 0.0 | 7.0 | 0.00 | 0.00 | 0.00 | 46 | 1007.4 |
| 20260509003017 | 66 | 258 | 0.9 | 8.7 | 0.00 | 0.00 | 0.00 | 46 | 1007.3 |
| 20260509001512 | 67 | 251 | 1.7 | 8.7 | 0.00 | 0.00 | 0.00 | 46 | 1007.5 |
| 20260509000008 | 67 | 246 | 0.9 | 7.8 | 0.00 | 0.00 | 0.00 | 46 | 1007.6 |
| 20260508234504 | 67 | 217 | 0.0 | 7.8 | 0.00 | 0.00 | 0.00 | 44 | 1007.6 |
| 20260508233100 | 68 | 360 | 2.6 | 7.0 | 0.00 | 0.00 | 0.00 | 43 | 1007.6 |
| 20260508231558 | 68 | 257 | 0.0 | 4.3 | 0.00 | 0.00 | 0.00 | 43 | 1007.7 |
| 20260508230123 | 68 | 260 | 2.6 | 9.6 | 0.00 | 0.00 | 0.00 | 41 | 1007.3 |
| 20260508224550 | 71 | 360 | 0.9 | 8.7 | 0.00 | 0.00 | 0.00 | 41 | 1007.5 |
| 20260508223042 | 70 | 243 | 0.0 | 5.2 | 0.00 | 0.00 | 0.00 | 40 | 1007.6 |
| 20260508221538 | 70 | 215 | 1.7 | 6.1 | 0.00 | 0.00 | 0.00 | 41 | 1007.6 |
| 20260508220105 | 70 | 190 | 0.9 | 6.1 | 0.00 | 0.00 | 0.00 | 41 | 1007.9 |
| 20260508214530 | 69 | 166 | 0.0 | 4.3 | 0.00 | 0.00 | 0.00 | 42 | 1008.2 |
| 20260508213026 | 69 | 214 | 1.7 | 5.2 | 0.00 | 0.00 | 0.00 | 42 | 1008.3 |
| 20260508211524 | 67 | 209 | 0.0 | 2.6 | 0.00 | 0.00 | 0.00 | 44 | 1008.3 |
| 20260508210018 | 68 | 221 | 0.0 | 3.5 | 0.00 | 0.00 | 0.00 | 44 | 1008.4 |
| 20260508204512 | 68 | 223 | 0.0 | 3.5 | 0.00 | 0.00 | 0.00 | 44 | 1008.5 |
| 20260508203007 | 67 | 300 | 0.0 | 7.0 | 0.00 | 0.00 | 0.00 | 42 | 1008.6 |
| 20260508201502 | 68 | 254 | 0.0 | 5.2 | 0.00 | 0.00 | 0.00 | 42 | 1008.9 |
| 20260508194555 | 69 | 193 | 0.0 | 7.0 | 0.00 | 0.00 | 0.00 | 40 | 1009.2 |
| 20260508193055 | 68 | 195 | 0.0 | 3.5 | 0.00 | 0.00 | 0.00 | 41 | 1009.5 |
| 20260508191547 | 69 | 248 | 1.7 | 7.8 | 0.00 | 0.00 | 0.00 | 40 | 1009.8 |
| 20260508190050 | 68 | 360 | 3.5 | 7.8 | 0.00 | 0.00 | 0.00 | 40 | 1009.9 |
| 20260508184545 | 67 | 215 | 0.0 | 2.6 | 0.00 | 0.00 | 0.00 | 42 | 1010.1 |
| 20260508183034 | 67 | 136 | 0.0 | 3.5 | 0.00 | 0.00 | 0.00 | 42 | 1010.3 |
| 20260508181537 | 68 | 198 | 0.0 | 5.2 | 0.00 | 0.00 | 0.00 | 41 | 1010.6 |
| 20260508180024 | 68 | 205 | 1.7 | 6.1 | 0.00 | 0.00 | 0.00 | 40 | 1010.8 |
| 20260508174529 | 67 | 192 | 0.9 | 4.3 | 0.00 | 0.00 | 0.00 | 38 | 1010.9 |
| 20260508173014 | 67 | 198 | 0.0 | 6.1 | 0.00 | 0.00 | 0.00 | 37 | 1011.3 |
| 20260508171511 | 66 | 213 | 1.7 | 6.1 | 0.00 | 0.00 | 0.00 | 35 | 1011.4 |
| 20260508170006 | 66 | 175 | 0.0 | 6.1 | 0.00 | 0.00 | 0.00 | 31 | 1011.7 |
| 20260508164503 | 66 | 161 | 0.0 | 6.1 | 0.00 | 0.00 | 0.00 | 22 | 1011.9 |
| 20260508163057 | 64 | 360 | 0.9 | 6.1 | 0.00 | 0.00 | 0.00 | 23 | 1012.2 |
| 20260508161553 | 64 | 246 | 0.0 | 3.5 | 0.00 | 0.00 | 0.00 | 21 | 1012.4 |
| 20260508160048 | 64 | 253 | 0.0 | 3.5 | 0.00 | 0.00 | 0.00 | 13 | 1012.5 |
| 20260508154545 | 64 | 249 | 0.0 | 4.3 | 0.00 | 0.00 | 0.00 | 9 | 1012.6 |